DW6942 Weather Reports


time (UTC)temp
F
wind
direction
speed
knots
gust
knots
rain 1hr
in
rain 24hr
in
rain mn
in
humidity
%
barometer
mb
20260505221526 82 242 1.7 6.1 0.00 0.00 0.00 74 1007.8
20260505220028 83 148 1.7 3.5 0.00 0.00 0.00 73 1007.7
20260505214527 83 133 1.7 7.0 0.00 0.00 0.00 72 1008.0
20260505213019 83 242 3.5 7.8 0.00 0.00 0.00 72 1008.3
20260505211518 83 215 1.7 7.0 0.00 0.00 0.00 73 1008.5
20260505210023 83 199 1.7 7.0 0.00 0.00 0.00 73 1008.6
20260505204513 84 132 0.9 9.6 0.00 0.00 0.00 73 1008.8
20260505203011 83 248 2.6 8.7 0.00 0.00 0.00 72 1009.1
20260505201510 83 248 0.9 8.7 0.00 0.00 0.00 74 1009.2
20260505200013 83 106 1.7 6.1 0.00 0.00 0.00 72 1009.4
20260505194506 83 246 3.5 9.6 0.00 0.00 0.00 72 1009.7
20260505193003 82 141 2.6 7.8 0.00 0.00 0.00 74 1009.8
20260505191501 82 229 0.9 6.1 0.00 0.00 0.00 75 1009.9
20260505184559 81 167 2.6 7.8 0.00 0.00 0.00 75 1010.1
20260505183055 80 138 3.5 10.4 0.00 0.00 0.00 77 1010.2
20260505181557 79 135 0.9 3.5 0.00 0.00 0.00 78 1010.3
20260505180049 79 147 1.7 6.1 0.00 0.00 0.00 78 1010.4
20260505174555 78 100 0.9 6.1 0.00 0.00 0.00 79 1010.5
20260505173048 79 129 0.9 7.8 0.00 0.00 0.00 79 1010.6
20260505171551 79 229 1.7 10.4 0.00 0.00 0.00 79 1010.8
20260505170044 78 300 0.9 4.3 0.00 0.00 0.00 81 1010.7
20260505164552 77 236 0.9 2.6 0.00 0.00 0.00 81 1010.9
20260505163050 77 238 0.0 2.6 0.00 0.00 0.00 82 1011.0
20260505161539 76 122 0.0 4.3 0.00 0.00 0.00 83 1010.9
20260505153036 76 134 2.6 7.8 0.00 0.00 0.00 80 1010.7
20260505151536 76 236 1.7 5.2 0.00 0.00 0.00 80 1010.6
20260505130112 0 0.0 0.0 0.00 0.00 0.00 1010.3
20260505124601 0 0.0 0.0 0.00 0.00 0.00 1009.9
20260505123051 0 0.0 0.0 0.00 0.00 0.00 1009.8
20260505121548 0 0.0 0.0 0.00 0.00 0.00 1010.0
20260505120045 0 0.0 0.0 0.00 0.00 0.00 1009.8
20260505114537 0 0.0 0.0 0.00 0.00 0.00 1009.5
20260505113032 0 0.0 0.0 0.00 0.00 0.00 1009.8
20260505111535 0 0.0 0.0 0.00 0.00 0.00 1009.9
20260505101510 0 0.0 0.0 0.00 0.00 0.00 1009.8
20260505100011 0 220 0.0 4.3 0.00 0.00 0.00 84 1009.9
20260505094503 70 179 0.9 4.3 0.00 0.00 0.00 84 1009.9
20260505093002 70 226 0.0 0.9 0.00 0.00 0.00 84 1009.9
20260505091601 70 119 0.0 1.7 0.00 0.00 0.00 83 1010.1
20260505090059 70 131 0.0 2.6 0.00 0.00 0.00 83 1010.2
20260505084559 70 202 0.0 5.2 0.00 0.00 0.00 83 1010.2
20260505083058 70 136 0.0 2.6 0.00 0.00 0.00 82 1010.2
20260505081608 70 255 0.0 3.5 0.00 0.00 0.00 82 1010.5
20260505080104 70 136 0.0 3.5 0.00 0.00 0.00 82 1010.6
20260505074553 70 148 0.0 2.6 0.00 0.00 0.00 81 1010.7
20260505073052 70 136 0.0 2.6 0.00 0.00 0.00 81 1010.8
20260505071554 70 60 0.0 2.6 0.00 0.00 0.00 81 1011.0
20260505070047 70 238 0.0 2.6 0.00 0.00 0.00 80 1011.0
20260505064546 70 222 0.0 3.5 0.00 0.00 0.00 80 1011.3
20260505063044 70 136 0.0 1.7 0.00 0.00 0.00 80 1011.3
20260505061542 70 142 0.9 7.0 0.00 0.00 0.00 80 1011.4
20260505060044 70 150 0.9 3.5 0.00 0.00 0.00 79 1011.5
20260505054552 70 233 0.9 4.3 0.00 0.00 0.00 79 1011.4
20260505053053 71 142 0.9 3.5 0.00 0.00 0.00 78 1011.8
20260505051541 71 135 0.0 3.5 0.00 0.00 0.00 78 1012.0
20260505041532 72 214 0.9 5.2 0.00 0.00 0.00 76 1011.9
20260505040040 72 258 1.7 5.2 0.00 0.00 0.00 75 1011.9
20260505034531 72 133 3.5 7.8 0.00 0.00 0.00 75 1012.0
20260505033039 72 190 0.9 5.2 0.00 0.00 0.00 75 1012.1
20260505031530 73 185 0.9 4.3 0.00 0.00 0.00 74 1012.3
20260505030029 73 240 0.9 7.8 0.00 0.00 0.00 74 1012.2
20260505024528 74 282 0.9 6.1 0.00 0.00 0.00 73 1012.0
20260505023027 74 187 2.6 7.0 0.00 0.00 0.00 73 1012.0
20260505021527 74 120 2.6 6.1 0.00 0.00 0.00 72 1012.0
20260505020026 74 219 0.9 6.1 0.00 0.00 0.00 72 1011.8
20260505014525 74 179 0.9 7.0 0.00 0.00 0.00 72 1011.6
20260505013025 74 259 0.9 3.5 0.00 0.00 0.00 72 1011.4
20260505011525 75 147 0.0 7.0 0.00 0.00 0.00 71 1011.3
20260505010023 75 205 0.0 3.5 0.00 0.00 0.00 70 1011.4
20260505004522 76 121 0.0 3.5 0.00 0.00 0.00 69 1011.5
20260505003022 76 122 0.9 6.1 0.00 0.00 0.00 69 1011.4
20260505001521 77 139 0.9 6.1 0.00 0.00 0.00 68 1011.4
20260505000019 77 118 1.7 8.7 0.00 0.00 0.00 68 1011.5
20260504234518 78 165 0.9 6.1 0.00 0.00 0.00 67 1011.7
20260504233018 78 212 0.9 5.2 0.00 0.00 0.00 66 1011.7
20260504231516 79 146 0.9 9.6 0.00 0.00 0.00 65 1011.7
20260504230015 79 173 1.7 7.0 0.00 0.00 0.00 64 1012.0
20260504224513 79 205 1.7 8.7 0.00 0.00 0.00 63 1011.9
20260504223012 80 135 0.9 6.1 0.00 0.00 0.00 62 1012.2